Regional Weather Roundup
Issued by NWS

Home | Current Version | Previous Version | Graphics & Text | Print | Product List | Glossary On
Versions: 1 2 3 4 5 6 7 8 9 10 11 12 13 14 15 16 17 18 19 20 21 22 23 24 25 26 27 28 29 30 31 32 33 34 35 36 37 38 39 40 41 42 43 44 45 46 47 48 49 50
000
ASUS43 KLOT 220806
RWRIL

ILLINOIS REGIONAL WEATHER ROUNDUP
NATIONAL WEATHER SERVICE CHICAGO/ROMEOVILLE IL
200 AM CST MON DEC 22 2014

NOTE: "FAIR" INDICATES FEW OR NO CLOUDS BELOW 12,000 FEET WITH NO
SIGNIFICANT WEATHER AND/OR OBSTRUCTIONS TO VISIBILITY.

* THESE STATIONS ARE NOT UNDER NWS QUALITY CONTROL. THEY ALSO MAY NOT
  REPORT WEATHER SUCH AS PRECIPITATION OR FOG.

ILZ001-002-007-009-015-016-024-220900-
NORTHWEST ILLINOIS

CITY           SKY/WX    TMP DP  RH WIND       PRES   REMARKS
MOLINE         CLOUDY    36  31  82 S14       29.87F WCI  27
STERLING*      CLOUDY    34  30  86 SE10      29.92S WCI  26
SAVANNA*       CLOUDY    35  31  87 SE7       29.91S WCI  29
$$

ILZ003-004-008-010-011-017-018-220900-
NORTH CENTRAL ILLINOIS

CITY           SKY/WX    TMP DP  RH WIND       PRES   REMARKS
ROCKFORD       LGT RAIN  33  30  88 S13       29.96S FOG     WCI  24
FREEPORT*      CLOUDY    33  31  93 SE13      29.93S FOG     WCI  24
ROCHELLE*      DRIZZLE   32  31  96 SE12      29.94F WCI  23
DE KALB*       CLOUDY    31  28  90 SE10      29.96S FOG     WCI  22
PERU*          CLOUDY    34  31  89 SE13      29.95S FOG     WCI  25
$$

ILZ005-006-012>014-019>023-220900-
NORTHEAST ILLINOIS

CITY           SKY/WX    TMP DP  RH WIND       PRES   REMARKS
CHICAGO-OHARE  CLOUDY    32  27  81 SE10      29.99R WCI  24
CHICAGO-MIDWAY CLOUDY    34  27  75 S8        30.00S WCI  27
AURORA         CLOUDY    33  27  78 SE10      29.97F HAZE    WCI  25
LANSING*       CLOUDY    31  27  84 SE9       30.01S FOG     WCI  23
JOLIET*        CLOUDY    31  28  88 SE5       29.99F FOG     WCI  26
WAUKEGAN       MOCLDY    32  27  81 SE10      29.98S WCI  24
DUPAGE AIRPORT CLOUDY    32  27  81 SE12      29.97S WCI  23
KANKAKEE*      CLOUDY    30  28  91 SE5       30.00S WCI  25
WHEELING       CLOUDY    32  27  81 S7        30.01R WCI  26
MORRIS*        CLOUDY    32  30  92 SE12      29.96F WCI  23
ROMEOVILLE*    CLOUDY    31  28  91 S9        29.99S FOG     WCI  23
NORTHERLY ISL    N/A     32  27  82 SE13        N/A  WCI  22
$$

LMZ740>746-220900-
SOUTHERN LAKE MICHIGAN

STATION/POSITION SKY/WX   TEMP    WIND        PRES    VSBY  WAVE
                          AIR SEA DIR/SP/G                  HT/PER
                          (F)     (DEG/KT/KT) (MB)    (MI)  (FT/S)
WAUKEGAN HARBOR            34     170/ 15/ 17   N/A
HARRISON CRIB              33     160/ 16/ 20   N/A
BURNHAM HARBOR             32     150/ 10/ 14   N/A
CALUMET HARBOR             32     150/  9/ 13 1014.9R
$$

ILZ025>027-034>036-040-047-049-050-058-095>099-220900-
WEST-CENTRAL ILLINOIS

CITY           SKY/WX    TMP DP  RH WIND       PRES   REMARKS
QUINCY         CLOUDY    39  33  79 SE10      29.85F WCI  32
GALESBURG*     CLOUDY    36  32  87 SE8       29.89S WCI  29
MACOMB*        CLOUDY    37  34  89 SE10      29.90F WCI  29
JACKSONVILLE*  CLOUDY    40  33  77 SE12      29.90F
PITTSFIELD*    CLOUDY    40  34  80 SE10      29.88F
$$

ILZ028>032-037-038-041>044-048-051>054-059>061-220900-
CENTRAL ILLINOIS

CITY           SKY/WX    TMP DP  RH WIND       PRES   REMARKS
PONTIAC        CLOUDY    33  31  92 SE12      29.97S WCI  24
BLOOMINGTON    CLOUDY    33  30  89 S10       29.96S WCI  25
DECATUR        CLOUDY    34  30  85 SE8       29.96S WCI  27
PEORIA         CLOUDY    38  30  73 SE8       29.93F WCI  32
LACON*         CLOUDY    35  30  83 S8        29.94S WCI  28
LINCOLN*       CLOUDY    37  32  82 SE9       29.95F WCI  30
SPRINGFIELD    CLOUDY    39  30  70 SE14      29.93S WCI  31
TAYLORVILLE    CLOUDY    36  30  80 SE9       29.94S WCI  29
$$

ILZ033-039-045-046-055>057-062-063-220900-
EAST-CENTRAL ILLINOIS

CITY           SKY/WX    TMP DP  RH WIND       PRES   REMARKS
CHAMPAIGN      CLOUDY    31  28  89 SE13      29.97S WCI  21
DANVILLE*      CLOUDY    30  28  90 E5        29.97F WCI  25
RANTOUL*       CLOUDY    33  30  90 SE9       29.97F FOG     WCI  25
MATTOON        CLOUDY    33  28  81 SE10      29.96S WCI  25
PARIS*         CLOUDY    32  29  90 E5        30.00S WCI  27
$$

ILZ079-100>102-220900-
SOUTHWEST ILLINOIS

CITY           SKY/WX    TMP DP  RH WIND       PRES   REMARKS
ALTON          CLOUDY    39  32  74 E7        29.91F WCI  34
BELLEVILLE     CLOUDY    40  33  76 E6        29.91F
CAHOKIA*       CLOUDY    42  31  64 SE10      29.90F
SPARTA*        CLOUDY    39  31  71 SE12      29.91F WCI  32
$$

ILZ064>066-069>071-074>076-080>082-084>086-088>090-092>094-220900-
SOUTH-CENTRAL ILLINOIS

CITY           SKY/WX    TMP DP  RH WIND       PRES   REMARKS
CARBONDALE     CLOUDY    39  30  70 E7        29.92F WCI  34
CAIRO*         CLOUDY    43  36  74 CALM      29.92F
EFFINGHAM*     CLOUDY    35  28  76 E8        29.97F WCI  28
MARION         CLOUDY    39  32  75 E7        29.93F WCI  34
MT. VERNON     CLOUDY    37  27  65 E6        29.95S WCI  33
CENTRALIA*     CLOUDY    38  29  70 E7        29.93F WCI  33
SALEM*         CLOUDY    39  31  72 E6        29.94F WCI  35
METROPOLIS*    CLOUDY    41  34  77 E3        29.93F
$$

ILZ067-068-072-073-078-083-087-091-220900-
SOUTHEAST ILLINOIS

CITY           SKY/WX    TMP DP  RH WIND       PRES   REMARKS
LAWRENCEVILLE  CLOUDY    33  29  85 E7        29.99F WCI  27
FLORA*         CLOUDY    35  31  85 E5        29.97S WCI  31
FAIRFIELD*     CLOUDY    37  31  78 SE6       29.95S WCI  32
HARRISBURG*    DRIZZLE   37  31  79 E6        29.96F WCI  33
ROBINSON*      CLOUDY    32  29  91 CALM      30.01S
CARMI*         CLOUDY    38  33  83 SE7       29.97S WCI  33
$$

ABBREVIATIONS USED IN REMARKS
   TC - TEMPERATURE IN CELSIUS
  WCI - WIND CHILL INDEX
   HX - HEAT INDEX
  VSB - VISIBILITY
$$




USA.gov is the U.S. government's official web portal to all federal, state and local government web resources and services.